Miscellaneous Local Product
Issued by NWS North Platte, NE

Home | Current Version | Previous Version | Graphics & Text | Print | Product List | Glossary On
Versions: 1 2 3 4 5 6 7 8 9 10 11 12 13 14 15 16 17 18 19 20 21 22 23 24 25 26 27 28 29 30 31 32 33 34 35 36 37 38 39 40 41 42 43 44 45 46 47 48 49 50
000
AXUS43 KLBF 030510
MISLBF


WESTERN AND NORTH CENTRAL NEBRASKA HOURLY WEATHER ROUNDUP
NATIONAL WEATHER SERVICE NORTH PLATTE NE
1200 AM CDT THU SEP 03 2015

NOTE: "FAIR" INDICATES FEW OR NO CLOUDS BELOW 12,000 FEET WITH NO
SIGNIFICANT WEATHER AND/OR OBSTRUCTIONS TO VISIBILITY.

NOTE: STATIONS NOT REPORTING VARIABLES SUCH AS SKY/WEATHER OR
PRESSURE ARE PROVIDED BY THE NEBRASKA DEPARTMENT OF
ROADS...RAWS...AND APRS NETWORKS...AND ARE NOT UNDER
NATIONAL WEATHER SERVICE QUALITY CONTROL.

...OBSERVATIONS IN AND NEAR THE EASTERN PANHANDLE OF NEBRASKA...

CITY           SKY/WX    TMP DP  RH WIND       PRES   REMARKS
PINE RIDGE     CLEAR     69  46  43 NW5       29.85S
CHADRON        CLEAR     72  44  36 W3        29.83S
ALLIANCE       CLEAR     63  49  60 S9        29.91S
SIDNEY         PTCLDY    68  44  42 S6        29.96S
CRESCENT LAKE    N/A     72  53  51 S6          N/A
BIG SPRINGS      N/A     75  58  55 SE7         N/A
$$

...OBSERVATIONS IN NORTH CENTRAL NEBRASKA...

CITY           SKY/WX    TMP DP  RH WIND       PRES   REMARKS
VALENTINE      CLEAR     75  59  57 SW9       29.83S
THEDFORD       CLEAR     69  62  78 CALM      29.88F
AINSWORTH      CLEAR     75  62  63 S9        29.85S
O`NEILL        CLEAR     73  70  89 SE6       29.85S
ORD            CLEAR     69  64  84 CALM      29.84F
BROKEN BOW     CLEAR     66  63  90 CALM      29.86F
SPRINGVIEW       N/A     76  63  63 CALM        N/A
SARGENT          N/A     69  65  86 CALM        N/A
CHAMBERS         N/A     71  67  86 CALM        N/A
EWING            N/A     71  64  80 CALM        N/A
$$

...OBSERVATIONS IN SOUTHWEST NEBRASKA AND FAR NORTHEAST COLORADO...

CITY           SKY/WX    TMP DP  RH WIND       PRES   REMARKS
WRAY           CLOUDY    67  51  56 SW6       29.91S
HOLYOKE        FAIR      70  59  68 CALM      29.92S
IMPERIAL       PTCLDY    71  57  61 E3        29.88S
OGALLALA       CLEAR     74  57  56 E6        29.89S
NORTH PLATTE   CLEAR     69  64  84 E7        29.86F
MCCOOK         PTCLDY    75  61  61 E8        29.84S
LEXINGTON      CLEAR     71  64  79 E5        29.85S
PAXTON           N/A     71  62  73 CALM        N/A
BRADY            N/A     70  64  80 CALM        N/A
CALLAWAY         N/A     64  62  92 E3          N/A
$$

...OBSERVATIONS IN CENTRAL LINCOLN COUNTY AREA...

CITY           SKY/WX    TMP DP  RH WIND       PRES   REMARKS
N.P. AIRPORT   CLEAR     69  64  84 E7        29.86F
N.P. DOWNTOWN    N/A     74  67  78 CALM        N/A
N.P. HILLCREST   N/A     73  65  77 E8          N/A
$$

...SOME OBSERVATIONS FROM AROUND THE REGION...

CITY           SKY/WX    TMP DP  RH WIND       PRES   REMARKS
DENVER         MOCLDY    78  39  24 S14       30.04F
LARAMIE        PTCLDY    60  39  45 S6        30.18F
CHEYENNE       MOCLDY    68  41  37 W9        30.09S
SCOTTSBLUFF    PTCLDY    69  53  56 E5        29.91F
RAPID CITY     CLEAR     64  52  64 CALM      29.80F
PIERRE         CLEAR     79  59  50 S7        29.71S
WINNER         FAIR      82  56  40 S14       29.78S
SIOUX FALLS    PTCLDY    74  70  87 SE5       29.85S
OMAHA          CLEAR     79  70  74 S13       29.87S
GRAND ISLAND   CLEAR     75  65  70 SE8       29.86S
KANSAS CITY    PTCLDY    75  69  81 S10       29.96S
WICHITA        PTCLDY    77  66  68 S12       29.93S
HAYS           CLEAR     82  57  42 S16       29.87S
LIBERAL        CLEAR     79  55  44 S14       29.96S
GOODLAND       MOCLDY    81  50  33 S13       29.91S
$$



USA.gov is the U.S. government's official web portal to all federal, state and local government web resources and services.